Change the Weather History Date:

Wednesday, April 17, 2013

  Actual Average (KEVV) Record (KEVV)
Temperature  
Mean Temperature 68 °F 57 °F  
Max Temperature 84 °F 68 °F 88 °F (1977)
Min Temperature 51 °F 45 °F 28 °F (1951)
Degree Days  
Heating Degree Days 0 9  
Month to date heating degree days 196  
Since 1 July heating degree days 4362  
Cooling Degree Days 2 1  
Month to date cooling degree days 9  
Year to date cooling degree days 12  
Growing Degree Days 18 (Base 50)    
Moisture  
Dew Point 61 °F    
Average Humidity 80    
Maximum Humidity 100    
Minimum Humidity 58    
Precipitation  
Precipitation 0.02 in 0.15 in 1.67 in (1940)
Month to date precipitation 2.32  
Year to date precipitation 12.83  
Snow  
Snow 0.00 in 0.00 in 0.40 in (1983)
Month to date snowfall 0.1  
Since 1 July snowfall 11.8  
Snow Depth -    
Sea Level Pressure  
Sea Level Pressure 29.99 in    
Wind  
Wind Speed 8 mph (ESE)    
Max Wind Speed 16 mph    
Max Gust Speed 26 mph    
Visibility 8 miles    
Events Rain , Thunderstorm    
T = Trace of Precipitation, MM = Missing Value Source: NWS Daily Summary

Daily Weather History Graph

Daily Weather History Graph

Search for Another Location

Airport or City:

Trip Planner

Search our weather history database for the weather conditions in past years. The results will help you decide how hot, cold, wet, or windy it might be!

Date:

Astronomy

Apr. 17, 2013 Rise Set
Actual Time 6:13 AM CDT 7:31 PM CDT
Civil Twilight 5:45 AM CDT 7:59 PM CDT
Nautical Twilight 5:12 AM CDT 8:32 PM CDT
Astronomical Twilight 4:37 AM CDT 9:07 PM CDT
Moon 11:28 AM CDT (4/17) 1:08 AM CDT (4/17)
Length of Visible Light 14h 13m
Length of Day
13h 18m
Waxing Crescent, 42% of the Moon is Illuminated
Apr 17
Waxing Crescent
Apr 18
First Quarter
Apr 25
Full
May 2
Last Quarter
May 9
New

Hourly Weather History & Observations

Time (CDT) Temp. Heat Index Dew Point Humidity Pressure Visibility Wind Dir Wind Speed Gust Speed Precip Events Conditions
12:15 AM 51.8 °F - 50.0 °F 94% 30.12 in 10.0 mi NNE 8.1 mph - N/A Rain Light Rain
12:35 AM 53.6 °F - 50.0 °F 88% 30.11 in 10.0 mi NE 8.1 mph - N/A Thunderstorm Overcast
12:55 AM 53.6 °F - 51.8 °F 94% 30.13 in 10.0 mi North 4.6 mph - N/A Rain , Thunderstorm Light Thunderstorms and Rain
1:15 AM 53.6 °F - 51.8 °F 94% 30.11 in 7.0 mi NE 10.4 mph - N/A Rain , Thunderstorm Light Thunderstorms and Rain
1:35 AM 53.6 °F - 51.8 °F 94% 30.11 in 7.0 mi ENE 5.8 mph - 0.01 in Rain , Thunderstorm Rain
1:55 AM 53.6 °F - 51.8 °F 94% 30.10 in 7.0 mi Calm Calm - N/A Thunderstorm Overcast
2:15 AM 53.6 °F - 51.8 °F 94% 30.10 in 7.0 mi North 5.8 mph - N/A Thunderstorm Overcast
2:35 AM 53.6 °F - 51.8 °F 94% 30.09 in 10.0 mi ENE 4.6 mph - 0.01 in Thunderstorm Overcast
2:55 AM 53.6 °F - 51.8 °F 94% 30.10 in 7.0 mi NNE 9.2 mph - N/A Thunderstorm Thunderstorm
3:15 AM 53.6 °F - 51.8 °F 94% 30.10 in 7.0 mi NE 8.1 mph - N/A Thunderstorm Overcast
3:35 AM 53.6 °F - 51.8 °F 94% 30.11 in 7.0 mi NE 5.8 mph - N/A Thunderstorm Overcast
3:55 AM 53.6 °F - 51.8 °F 94% 30.11 in 7.0 mi ENE 9.2 mph - N/A   Overcast
4:15 AM 53.6 °F - 53.6 °F 100% 30.09 in 7.0 mi ENE 10.4 mph - N/A   Overcast
4:35 AM 53.6 °F - 53.6 °F 100% 30.09 in 7.0 mi ENE 6.9 mph - N/A   Overcast
4:55 AM 53.6 °F - 53.6 °F 100% 30.09 in 7.0 mi ENE 4.6 mph - N/A   Overcast
5:15 AM 53.6 °F - 53.6 °F 100% 30.09 in 7.0 mi East 4.6 mph - N/A   Overcast
5:35 AM 55.4 °F - 53.6 °F 94% 30.09 in 7.0 mi NE 5.8 mph - N/A Thunderstorm Overcast
5:55 AM 55.4 °F - 53.6 °F 94% 30.09 in 7.0 mi ENE 5.8 mph - N/A   Overcast
6:15 AM 55.4 °F - 53.6 °F 94% 30.09 in 5.0 mi East 8.1 mph - N/A   Overcast
6:35 AM 55.4 °F - 55.4 °F 100% 30.10 in 4.0 mi NNE 4.6 mph - N/A Thunderstorm Overcast
6:55 AM 55.4 °F - 55.4 °F 100% 30.11 in 4.0 mi NE 4.6 mph - N/A   Overcast
7:15 AM 55.4 °F - 55.4 °F 100% 30.10 in 4.0 mi ENE 5.8 mph - N/A   Overcast
7:35 AM 57.2 °F - 55.4 °F 94% 30.10 in 4.0 mi ENE 6.9 mph - N/A   Overcast
7:55 AM 57.2 °F - 55.4 °F 94% 30.10 in 4.0 mi ENE 5.8 mph - N/A   Overcast
8:15 AM 59.0 °F - 57.2 °F 94% 30.10 in 5.0 mi East 5.8 mph - N/A   Overcast
8:35 AM 60.8 °F - 57.2 °F 88% 30.09 in 7.0 mi East 9.2 mph - N/A   Overcast
8:55 AM 60.8 °F - 57.2 °F 88% 30.10 in 7.0 mi East 5.8 mph - N/A   Overcast
9:15 AM 60.8 °F - 57.2 °F 88% 30.09 in 7.0 mi East 5.8 mph - N/A   Overcast
9:35 AM 62.6 °F - 57.2 °F 82% 30.09 in 7.0 mi East 6.9 mph - N/A   Overcast
9:55 AM 62.6 °F - 59.0 °F 88% 30.08 in 7.0 mi East 5.8 mph - N/A   Overcast
10:15 AM 64.4 °F - 60.8 °F 88% 30.07 in 7.0 mi East 6.9 mph - N/A   Overcast
10:35 AM 68.0 °F - 62.6 °F 83% 30.07 in 7.0 mi ESE 6.9 mph - N/A   Mostly Cloudy
10:55 AM 71.6 °F - 62.6 °F 73% 30.06 in 7.0 mi SE 8.1 mph - N/A   Scattered Clouds
11:15 AM 71.6 °F - 64.4 °F 78% 30.05 in 7.0 mi SE 9.2 mph - N/A   Scattered Clouds
11:35 AM 71.6 °F - 64.4 °F 78% 30.04 in 5.0 mi SE 10.4 mph - N/A   Haze
11:55 AM 75.2 °F - 66.2 °F 73% 30.04 in 5.0 mi SSE 9.2 mph - N/A   Haze
12:15 PM 75.2 °F - 66.2 °F 73% 30.03 in 5.0 mi SE 9.2 mph - N/A   Haze
12:35 PM 77.0 °F - 68.0 °F 74% 30.02 in 5.0 mi SE 9.2 mph - N/A   Haze
12:55 PM 78.8 °F - 68.0 °F 69% 30.00 in 7.0 mi SE 8.1 mph - N/A   Clear
1:15 PM 78.8 °F - 69.8 °F 74% 29.99 in 7.0 mi SSE 8.1 mph - N/A   Clear
1:35 PM 82.4 °F 86.3 °F 69.8 °F 66% 29.98 in 7.0 mi SSE 8.1 mph - N/A   Clear
1:55 PM 82.4 °F 86.3 °F 69.8 °F 66% 29.98 in 10.0 mi SSE 10.4 mph - N/A   Scattered Clouds
2:15 PM 84.2 °F 88.4 °F 69.8 °F 62% 29.96 in 10.0 mi South 10.4 mph - N/A   Scattered Clouds
2:35 PM 82.4 °F 86.3 °F 69.8 °F 66% 29.95 in 10.0 mi South 11.5 mph 16.1 mph N/A   Scattered Clouds
2:55 PM 84.2 °F 87.3 °F 68.0 °F 58% 29.94 in 10.0 mi SSW 11.5 mph 17.3 mph N/A   Scattered Clouds
3:35 PM 84.2 °F 88.4 °F 69.8 °F 62% 29.90 in 10.0 mi South 13.8 mph - N/A   Scattered Clouds
3:55 PM 84.2 °F 87.3 °F 68.0 °F 58% 29.90 in 10.0 mi South 11.5 mph 24.2 mph N/A   Scattered Clouds
4:15 PM 82.4 °F 84.6 °F 66.2 °F 58% 29.90 in 10.0 mi South 16.1 mph 26.5 mph N/A   Scattered Clouds
4:35 PM 80.6 °F 82.3 °F 64.4 °F 58% 29.89 in 10.0 mi South 12.7 mph 23.0 mph N/A   Scattered Clouds
4:55 PM 80.6 °F 82.7 °F 66.2 °F 61% 29.89 in 10.0 mi South 12.7 mph 21.9 mph N/A   Clear
5:15 PM 80.6 °F 82.7 °F 66.2 °F 61% 29.87 in 10.0 mi South 15.0 mph 19.6 mph N/A   Clear
5:35 PM 80.6 °F 82.7 °F 66.2 °F 61% 29.87 in 10.0 mi South 11.5 mph 18.4 mph N/A   Clear
5:55 PM 82.4 °F 84.6 °F 66.2 °F 58% 29.88 in 10.0 mi South 10.4 mph 16.1 mph N/A   Clear
6:15 PM 80.6 °F 82.7 °F 66.2 °F 61% 29.87 in 10.0 mi South 12.7 mph 17.3 mph N/A   Clear
6:35 PM 80.6 °F 82.7 °F 66.2 °F 61% 29.87 in 10.0 mi South 12.7 mph - N/A   Clear
6:55 PM 78.8 °F - 66.2 °F 65% 29.86 in 10.0 mi SSE 10.4 mph - N/A   Clear
7:15 PM 78.8 °F - 66.2 °F 65% 29.85 in 10.0 mi SSE 10.4 mph - N/A   Clear
7:35 PM 77.0 °F - 66.2 °F 69% 29.85 in 10.0 mi SE 9.2 mph - N/A   Clear
7:55 PM 75.2 °F - 66.2 °F 73% 29.85 in 10.0 mi SSE 8.1 mph - N/A   Scattered Clouds
8:15 PM 75.2 °F - 66.2 °F 73% 29.85 in 10.0 mi SSE 8.1 mph - N/A   Scattered Clouds
8:35 PM 75.2 °F - 66.2 °F 73% 29.85 in 10.0 mi SSE 9.2 mph - N/A   Mostly Cloudy
8:55 PM 75.2 °F - 66.2 °F 73% 29.83 in 10.0 mi SSE 9.2 mph - N/A   Scattered Clouds
9:15 PM 75.2 °F - 66.2 °F 73% 29.83 in 10.0 mi SSE 10.4 mph - N/A   Mostly Cloudy
9:35 PM 75.2 °F - 66.2 °F 73% 29.83 in 10.0 mi SE 9.2 mph - N/A   Mostly Cloudy
9:55 PM 73.4 °F - 66.2 °F 78% 29.82 in 10.0 mi SE 10.4 mph - N/A   Scattered Clouds
10:15 PM 73.4 °F - 66.2 °F 78% 29.82 in 10.0 mi SE 8.1 mph - N/A   Clear
10:35 PM 71.6 °F - 64.4 °F 78% 29.81 in 10.0 mi SE 8.1 mph - N/A   Clear
10:55 PM 71.6 °F - 64.4 °F 78% 29.82 in 10.0 mi SE 10.4 mph - N/A   Clear
11:15 PM 71.6 °F - 64.4 °F 78% 29.80 in 10.0 mi SSE 9.2 mph - N/A   Scattered Clouds
11:35 PM 71.6 °F - 64.4 °F 78% 29.79 in 10.0 mi SSE 10.4 mph - N/A   Clear
11:55 PM 73.4 °F - 64.4 °F 73% 29.79 in 10.0 mi SSE 10.4 mph - N/A   Mostly Cloudy